Theta_e
301 299 296 299 300 299 295 294 294 298 295 294 296 295 298 300 300 298 299 301 301 298 299 299 296 294 292 292 292 292 292 292 292 291 291 290 290 291 290 290 289 288 288 287
297 295 300 299 297 295 295 294 295 297 292 292 294 292 295 297 298 299 300 301 302 299 298 297 295 292 290 290 291 291 291 292 291 291 291 290 290 290 290 289 289 288 287 286
295 298 295 296 295 293 294 294 295 293 292 291 289 290 292 296 296 298 299 300 301 300 298 295 293 291 291 290 290 290 290 291 291 290 289 288 288 288 287 288 288 287 286 286
296 297 295 294 294 295 292 296 294 291 290 289 290 286 294 296 295 296 300 301 299 298 297 296 293 292 291 291 292 290 290 290 290 290 288 287 287 287 288 287 287 286 286 285
294 292 292 293 294 295 294 291 290 289 289 286 290 285 291 289 290 295 298 301 300 299 297 295 293 292 292 291 291 290 290 289 289 289 288 288 287 287 287 286 285 285 285 284
295 294 294 295 290 291 290 290 288 286 287 283 290 288 289 290 292 295 298 300 298 296 296 297 295 293 291 291 290 291 289 288 289 288 288 287 286 286 285 284 283 283 283 283
293 292 292 292 291 290 290 290 287 286 284 284 286 284 288 293 295 296 298 301 297 296 295 294 292 290 290 289 289 289 289 287 288 288 287 287 286 285 284 283 282 281 281 281
289 288 289 292 294 294 289 292 288 282 283 285 283 281 290 295 297 297 295 296 294 293 293 293 292 290 289 288 288 288 288 288 288 287 286 286 285 284 283 282 281 280 280 280
287 289 288 288 289 292 288 287 291 287 279 280 288 292 293 293 292 293 292 294 295 294 293 291 291 290 289 288 288 289 288 288 287 286 286 284 283 282 281 280 280 279 280 279
293 287 288 285 288 286 287 289 285 286 282 281 286 288 289 291 291 293 292 294 297 295 294 292 290 289 289 289 289 289 289 288 287 286 285 283 282 281 280 279 278 278 279 278
292 292 288 285 285 288 283 285 285 284 284 282 281 286 293 292 293 292 294 297 298 296 295 293 290 289 289 289 288 288 288 287 286 284 283 281 280 279 278 277 277 277 277 277
293 291 288 290 285 285 287 288 288 284 283 284 284 285 292 294 295 294 294 294 296 295 295 294 291 289 288 287 287 287 287 286 284 283 281 279 278 277 276 276 276 277 276 277
290 287 285 287 283 283 284 284 287 288 288 284 282 284 294 295 295 295 294 296 294 295 294 292 289 287 286 286 286 286 285 284 282 280 279 277 276 276 275 275 275 275 275 275
294 288 287 283 287 287 283 284 285 287 284 284 285 287 291 294 294 295 296 294 294 294 292 294 290 287 287 286 285 284 283 281 279 277 276 276 275 275 275 275 274 274 274 274
291 285 288 289 290 289 288 287 287 283 285 283 287 287 291 293 294 296 297 297 296 296 292 292 290 287 286 285 283 282 281 278 277 275 275 275 274 274 273 273 273 273 273 272
289 284 286 283 287 287 285 288 288 288 288 288 287 285 293 294 295 294 295 295 294 294 295 293 289 286 284 283 282 279 278 276 275 274 274 273 273 272 272 271 271 271 271 271
286 285 284 280 286 285 280 285 287 288 290 289 284 290 294 293 294 294 295 295 294 294 294 293 287 284 283 281 280 278 275 274 274 273 273 271 271 270 270 270 269 269 269 270
286 285 285 280 283 274 286 291 290 288 290 291 291 292 293 294 295 295 297 295 295 295 295 292 288 285 283 281 279 276 273 273 273 272 271 270 269 269 268 268 268 268 269 269
291 287 281 278 279 283 285 288 287 286 286 292 291 292 293 294 294 294 296 297 296 297 297 295 288 284 281 279 276 273 272 272 271 270 270 269 268 267 266 265 267 267 268 268
289 289 283 280 276 275 286 291 293 291 281 293 292 292 292 292 287 292 298 295 294 288 285 282 281 278 276 274 274 272 271 270 270 270 269 268 267 266 265 266 266 267 266 266
282 283 279 280 279 283 290 291 290 280 284 294 293 293 292 290 292 296 288 286 283 281 279 277 276 274 273 273 273 272 270 270 270 269 267 266 266 265 265 265 265 265 265 266
284 281 280 280 278 276 293 292 285 292 296 296 296 292 290 291 292 292 285 281 279 276 276 275 274 272 272 273 273 271 270 269 267 266 265 265 264 265 265 262 264 264 264 264
283 288 286 286 285 292 295 294 296 296 295 296 295 295 293 292 291 289 282 278 278 276 275 274 272 270 271 272 272 270 267 266 265 264 263 263 263 264 263 263 264 265 265 265
291 293 288 288 291 292 294 296 297 297 296 297 297 295 291 292 292 287 283 278 275 274 273 272 270 269 269 270 271 269 266 265 263 263 263 263 263 263 263 265 265 265 265 265
284 286 285 284 287 291 294 295 294 292 293 291 293 291 292 292 289 289 285 280 276 273 272 271 271 270 268 268 266 266 265 263 263 264 264 263 263 263 263 264 264 265 266 267
286 284 282 282 289 290 291 295 296 295 294 295 294 293 293 290 292 291 287 281 277 273 271 270 271 269 267 265 264 264 263 264 264 263 262 262 262 262 262 263 263 263 265 267
Wind_Speed
2 7 17 17 17 13 7 8 17 13 4 6 18 22 25 21 19 24 24 21 20 22 18 19 21 21 20 19 18 18 16 14 11 8 6 4 4 4 4 4 5 5 3 5
5 17 18 5 6 9 9 13 22 13 3 9 14 22 22 22 26 24 25 24 20 17 16 18 20 20 21 20 19 18 17 16 12 8 6 3 3 3 3 4 5 5 5 5
17 9 3 9 10 10 12 18 16 11 4 9 10 17 10 8 15 20 23 24 18 17 17 17 19 22 21 22 22 19 18 16 14 11 6 4 2 3 4 5 3 3 5 6
11 5 11 9 11 14 15 8 11 8 5 12 3 20 12 14 14 12 23 13 14 15 14 15 19 22 24 22 18 19 18 16 13 14 10 10 7 6 4 3 4 5 7 8
6 5 8 11 10 12 6 2 4 3 8 7 12 13 9 2 6 18 17 16 12 13 14 17 19 20 19 19 18 19 18 15 13 13 12 9 9 6 4 4 7 7 7 7
7 1 5 3 3 1 8 3 2 2 4 11 18 19 3 6 8 9 14 13 9 10 12 13 14 15 17 18 18 18 19 18 15 15 14 14 12 9 6 6 5 5 5 6
4 9 3 3 5 3 4 4 6 8 7 16 2 9 14 14 12 14 18 14 5 8 10 11 14 16 17 20 20 19 21 21 18 17 15 14 12 10 9 7 5 6 6 7
5 11 13 10 12 4 11 7 7 16 15 25 6 14 10 11 16 20 7 10 4 7 8 10 13 15 18 19 22 22 22 21 20 18 16 12 11 6 6 7 6 6 7 7
9 11 3 1 2 3 9 9 2 7 3 11 12 20 8 10 14 8 15 11 15 12 10 12 13 16 17 20 22 23 22 20 20 18 13 12 9 9 7 7 7 7 7 7
2 8 4 4 2 1 4 3 5 4 8 21 27 31 20 13 16 12 11 13 15 9 12 12 13 15 16 18 19 22 22 21 20 17 13 10 10 9 7 7 8 8 8 10
5 10 4 5 13 17 7 7 5 3 4 11 22 13 4 5 5 9 13 13 9 9 12 12 13 14 15 15 18 19 20 21 19 16 13 11 9 8 8 7 6 8 9 9
9 4 12 19 2 3 2 10 15 10 9 13 10 36 3 3 5 4 3 5 7 9 12 11 12 14 16 17 18 19 18 18 17 15 13 11 9 8 7 6 7 7 8 8
10 4 5 11 4 1 8 7 11 13 14 34 11 37 13 13 15 10 12 12 8 14 13 12 13 16 16 16 17 18 18 18 16 15 12 10 9 8 7 7 6 6 7 9
12 7 15 22 17 4 7 10 17 23 19 19 26 34 41 32 31 25 19 13 15 16 13 16 15 16 15 15 16 18 19 17 16 14 12 11 10 8 6 5 6 6 7 9
7 11 15 23 26 20 23 21 22 27 28 27 34 28 35 35 32 27 22 18 25 21 13 19 16 15 16 16 16 16 17 16 16 14 12 11 9 6 5 5 5 6 7 9
7 22 24 30 34 32 29 22 31 31 39 33 28 33 34 36 36 33 36 27 28 24 25 21 17 14 16 19 18 18 17 16 15 14 12 10 8 6 5 4 5 7 8 9
9 11 14 22 25 19 16 38 34 42 33 32 33 38 34 35 31 30 33 23 22 26 24 16 18 18 17 19 20 21 18 16 14 13 11 10 8 7 5 4 5 7 8 8
14 16 13 11 7 18 22 23 33 40 37 32 30 35 36 35 33 28 23 19 25 24 23 12 13 13 15 17 19 18 18 16 14 13 12 10 8 6 5 4 5 6 5 8
26 20 10 10 17 11 2 17 27 24 30 26 33 35 36 37 14 32 16 21 23 23 19 8 9 11 15 18 19 18 16 15 14 14 13 11 8 6 5 4 4 4 6 7
26 24 18 8 10 17 16 29 28 7 9 32 26 28 29 23 15 22 20 7 11 3 3 8 13 14 15 16 18 19 17 15 14 14 12 10 8 6 5 4 3 3 5 7
8 12 24 23 22 13 12 11 6 15 21 29 29 27 22 18 19 21 2 2 1 2 9 14 14 14 16 17 18 17 15 14 13 13 12 10 8 6 4 3 2 3 5 7
19 13 12 15 18 25 18 19 26 29 31 24 20 10 8 12 14 12 8 3 2 7 11 12 12 13 14 17 17 17 15 15 14 13 12 10 8 5 5 4 2 2 4 5
24 25 24 25 18 17 17 31 33 32 30 25 18 11 15 13 13 11 10 13 16 16 13 13 14 14 14 13 13 17 15 15 13 12 11 10 9 6 5 4 2 1 3 4
20 20 23 27 24 20 17 17 20 22 24 23 21 10 8 15 11 10 8 10 13 16 15 14 16 19 16 12 11 12 15 14 12 10 10 9 8 7 4 3 2 1 2 4
9 12 8 9 15 22 24 17 12 12 12 13 16 10 16 14 14 15 12 13 13 15 15 17 16 16 18 15 14 14 14 14 13 11 8 7 5 5 4 3 1 0 1 6
19 21 19 21 22 17 20 22 17 16 18 20 18 18 16 15 22 15 15 14 15 17 17 17 17 18 18 15 15 15 13 13 13 11 9 6 5 4 4 3 2 2 4 8
Wind_Direction
126 224 233 240 227 272 271 261 266 267 192 237 249 256 271 282 273 261 266 258 247 236 230 211 203 198 194 193 190 192 186 187 181 184 188 206 211 196 226 221 243 246 287 302
183 238 251 243 231 229 236 259 263 283 192 215 273 269 272 265 266 266 268 264 255 244 230 210 200 198 197 191 193 193 193 188 191 188 189 188 186 215 257 261 255 265 299 308
229 244 77 198 216 209 233 238 258 261 316 223 282 268 243 257 254 272 262 258 257 235 225 207 201 202 198 196 195 195 193 190 190 187 170 163 193 241 243 235 253 292 295 287
242 264 228 212 234 202 243 233 248 269 284 274 356 288 276 270 263 248 270 253 239 224 217 202 201 203 203 200 192 193 192 189 189 183 185 195 207 223 224 265 278 276 272 280
217 180 197 215 236 179 245 109 179 199 250 306 246 268 269 128 250 259 262 266 227 225 205 198 201 205 204 195 192 190 189 189 186 186 196 198 213 230 243 258 275 279 295 305
261 152 217 212 83 182 134 121 158 161 251 250 254 232 244 186 211 244 259 265 208 194 200 202 195 198 200 194 193 193 191 191 188 190 196 203 209 213 225 234 257 284 296 276
200 219 170 184 149 135 195 183 284 251 233 266 121 254 263 276 235 235 249 265 161 181 187 191 190 193 192 194 192 195 193 195 189 193 196 202 210 214 230 241 242 254 262 267
222 254 184 174 223 217 186 216 202 273 282 289 107 249 273 228 245 251 280 261 204 207 207 205 200 196 195 193 194 196 195 195 192 192 194 197 201 208 219 228 238 253 256 269
192 248 107 301 98 190 153 198 332 286 100 285 247 256 220 201 238 241 251 258 251 226 212 211 203 205 197 197 199 198 195 193 193 191 190 189 192 204 218 231 239 250 256 265
229 279 144 112 152 87 223 112 138 197 270 268 280 290 283 229 237 233 246 239 252 218 211 211 206 206 207 206 200 200 197 193 188 186 183 183 189 201 218 228 236 249 264 264
162 202 195 151 200 203 173 200 201 278 227 268 284 267 149 161 149 201 224 236 253 242 228 212 209 208 210 208 202 199 195 190 181 178 174 178 186 200 216 233 246 254 267 275
205 192 235 239 85 338 319 234 205 223 220 236 270 274 115 245 206 232 242 264 258 236 217 212 206 205 208 205 200 200 191 185 175 168 171 178 182 198 217 233 246 260 276 288
172 210 241 259 214 220 208 195 232 239 258 248 219 262 205 277 274 271 251 257 231 235 223 217 211 208 210 207 201 194 187 181 164 160 168 174 186 197 215 238 257 270 288 291
166 172 222 242 245 130 183 211 223 223 235 257 238 257 276 275 271 282 278 254 239 235 223 226 221 217 212 203 192 186 183 172 159 161 169 177 185 196 213 238 260 270 283 292
151 236 237 247 264 264 271 270 249 235 242 246 260 265 266 275 280 277 281 285 274 269 231 231 227 214 207 196 184 180 173 165 159 163 168 177 177 186 207 242 266 287 292 287
197 236 234 255 264 266 258 251 255 259 258 254 253 265 264 270 277 283 275 268 271 272 261 242 224 206 196 190 181 172 167 160 159 165 168 165 168 173 205 242 272 282 281 284
206 219 219 240 233 248 256 241 246 252 255 255 262 253 263 265 263 261 270 281 272 262 263 250 207 201 192 184 174 173 161 149 158 160 157 165 168 180 193 228 260 272 283 302
225 228 228 252 235 228 233 234 235 244 251 256 255 260 264 264 263 270 273 267 265 267 268 244 205 192 180 170 170 157 149 150 153 155 161 166 171 178 191 221 256 280 297 299
221 224 229 226 221 254 236 228 222 230 249 252 251 262 258 263 302 279 279 251 257 264 270 260 187 168 161 162 154 150 144 146 149 160 164 164 166 174 192 217 248 294 306 306
223 222 220 201 228 232 226 237 238 228 254 254 242 246 256 276 279 277 293 230 247 291 144 147 140 136 147 153 153 152 152 153 160 160 156 156 159 169 184 212 267 306 299 298
182 204 220 230 242 242 217 222 97 201 238 242 245 251 250 240 232 251 121 228 48 144 141 136 144 156 152 156 158 151 150 159 152 144 142 146 155 165 178 203 280 284 299 309
212 193 205 227 240 244 222 219 216 235 247 246 254 239 206 223 237 229 154 109 255 167 155 159 148 151 154 161 158 151 156 144 144 142 143 149 151 169 163 187 209 281 311 317
236 229 235 218 228 222 212 220 225 235 251 256 254 246 225 231 230 221 190 183 185 182 173 167 151 150 152 166 160 147 142 144 144 142 146 149 153 165 166 172 102 352 335 338
249 256 252 257 252 242 241 241 244 240 241 253 260 265 199 233 237 216 201 192 182 173 170 161 159 155 156 156 150 131 142 139 138 143 149 150 151 151 152 147 126 163 5 330
277 313 300 300 296 306 294 277 265 258 258 272 267 246 244 244 239 225 216 198 189 174 167 164 168 164 155 150 137 141 143 143 143 144 148 144 137 141 135 102 116 55 352 307
272 277 271 268 276 273 282 289 293 285 264 260 264 267 256 250 260 238 228 200 182 174 164 167 169 161 153 150 144 145 153 151 144 141 147 154 144 142 126 127 119 57 314 337